contact:dominique.lefevre@mio.osupytheas.fr, maurice.libes@osupytheas.fr, didier.mallarino@osupytheas.fr
Project:EMSO http://www.emso-fr.org/EMSO-France
Depth: 2436.0 m
Title:EMSO Ligure Ouest : Data MII capteur CSTAR
DateTime,Latitude,Longitude,Instrument_Serial,Reference_Counts,Signal_Counts,Corrected_Signal_raw_counts,Calculated_Beam_c_inverse_meters,Internal_thermistor_counts
DateTime,Latitude,Longitude,Instrument_Serial,Reference_Counts,Signal_Counts,Corrected_Signal_raw_counts,Calculated_Beam_c_inverse_meters,Internal_thermistor_counts
2019-11-12T00:01:45,42.805,6.029,CST-1368DR,7387,10345,15307,0.080,551
2019-11-12T00:04:46,42.805,6.029,CST-1368DR,7387,10345,15307,0.080,551
2019-11-12T00:07:48,42.805,6.029,CST-1368DR,7387,10343,15304,0.081,550
2019-11-12T00:10:49,42.805,6.029,CST-1368DR,7387,10346,15308,0.080,551
2019-11-12T00:13:51,42.805,6.029,CST-1368DR,7387,10344,15305,0.080,550
2019-11-12T00:16:53,42.805,6.029,CST-1368DR,7387,10346,15308,0.080,551
2019-11-12T00:19:54,42.805,6.029,CST-1368DR,7387,10346,15308,0.080,551
2019-11-12T00:22:56,42.805,6.029,CST-1368DR,7386,10346,15310,0.079,551
2019-11-12T00:25:58,42.805,6.029,CST-1368DR,7386,10345,15308,0.080,551
2019-11-12T00:28:59,42.805,6.029,CST-1368DR,7387,10344,15306,0.080,551
2019-11-12T00:32:01,42.805,6.029,CST-1368DR,7386,10345,15309,0.079,551
2019-11-12T00:35:03,42.805,6.029,CST-1368DR,7386,10345,15309,0.079,551
2019-11-12T00:38:04,42.805,6.029,CST-1368DR,7386,10346,15310,0.079,551
2019-11-12T00:41:06,42.805,6.029,CST-1368DR,7386,10345,15309,0.079,551
2019-11-12T00:44:08,42.805,6.029,CST-1368DR,7386,10346,15310,0.079,551
2019-11-12T00:47:10,42.805,6.029,CST-1368DR,7386,10345,15309,0.079,551
2019-11-12T00:50:11,42.805,6.029,CST-1368DR,7386,10345,15309,0.079,551
2019-11-12T00:53:13,42.805,6.029,CST-1368DR,7386,10346,15310,0.079,551
2019-11-12T00:56:15,42.805,6.029,CST-1368DR,7386,10346,15310,0.079,551
2019-11-12T00:59:17,42.805,6.029,CST-1368DR,7386,10344,15307,0.080,551
2019-11-12T01:02:19,42.805,6.029,CST-1368DR,7386,10345,15309,0.079,551
2019-11-12T01:05:21,42.805,6.029,CST-1368DR,7386,10345,15309,0.079,551
2019-11-12T01:08:22,42.805,6.029,CST-1368DR,7386,10345,15309,0.079,551
2019-11-12T01:11:24,42.805,6.029,CST-1368DR,7386,10344,15308,0.080,551
2019-11-12T01:14:25,42.805,6.029,CST-1368DR,7386,10344,15308,0.080,551
2019-11-12T01:17:27,42.805,6.029,CST-1368DR,7386,10344,15308,0.080,551
2019-11-12T01:20:29,42.805,6.029,CST-1368DR,7386,10345,15309,0.079,551
2019-11-12T01:23:30,42.805,6.029,CST-1368DR,7386,10346,15310,0.079,551
2019-11-12T01:26:32,42.805,6.029,CST-1368DR,7386,10344,15307,0.080,551
2019-11-12T01:29:34,42.805,6.029,CST-1368DR,7386,10345,15309,0.079,551
2019-11-12T01:32:35,42.805,6.029,CST-1368DR,7386,10345,15309,0.079,551
2019-11-12T01:35:37,42.805,6.029,CST-1368DR,7386,10345,15309,0.079,551
2019-11-12T01:38:39,42.805,6.029,CST-1368DR,7386,10343,15306,0.080,551
2019-11-12T01:41:41,42.805,6.029,CST-1368DR,7386,10344,15307,0.080,551
2019-11-12T01:44:42,42.805,6.029,CST-1368DR,7386,10345,15308,0.080,551
2019-11-12T01:47:44,42.805,6.029,CST-1368DR,7386,10345,15309,0.079,551
2019-11-12T01:50:46,42.805,6.029,CST-1368DR,7386,10345,15309,0.079,551
2019-11-12T01:53:47,42.805,6.029,CST-1368DR,7386,10345,15308,0.080,551
2019-11-12T01:56:49,42.805,6.029,CST-1368DR,7386,10346,15310,0.079,551
2019-11-12T01:59:51,42.805,6.029,CST-1368DR,7386,10345,15309,0.079,551
2019-11-12T02:02:52,42.805,6.029,CST-1368DR,7386,10346,15310,0.079,551
2019-11-12T02:05:54,42.805,6.029,CST-1368DR,7386,10345,15308,0.080,551
2019-11-12T02:08:56,42.805,6.029,CST-1368DR,7386,10344,15307,0.080,551
2019-11-12T02:11:57,42.805,6.029,CST-1368DR,7386,10345,15309,0.079,551
2019-11-12T02:14:59,42.805,6.029,CST-1368DR,7386,10344,15307,0.080,551
2019-11-12T02:18:00,42.805,6.029,CST-1368DR,7386,10346,15310,0.079,551
2019-11-12T02:21:02,42.805,6.029,CST-1368DR,7386,10345,15309,0.079,551
2019-11-12T02:24:04,42.805,6.029,CST-1368DR,7386,10345,15309,0.079,550
2019-11-12T02:27:05,42.805,6.029,CST-1368DR,7386,10345,15309,0.079,551
2019-11-12T02:30:07,42.805,6.029,CST-1368DR,7386,10346,15310,0.079,551
2019-11-12T02:33:09,42.805,6.029,CST-1368DR,7386,10345,15308,0.080,551
2019-11-12T02:36:11,42.805,6.029,CST-1368DR,7386,10345,15309,0.079,551
2019-11-12T02:39:12,42.805,6.029,CST-1368DR,7386,10345,15309,0.079,551
2019-11-12T02:42:14,42.805,6.029,CST-1368DR,7386,10345,15308,0.080,551
2019-11-12T02:45:15,42.805,6.029,CST-1368DR,7386,10343,15305,0.080,551
2019-11-12T02:48:17,42.805,6.029,CST-1368DR,7386,10345,15309,0.079,550
2019-11-12T02:51:19,42.805,6.029,CST-1368DR,7386,10344,15308,0.080,550
2019-11-12T02:54:20,42.805,6.029,CST-1368DR,7386,10344,15307,0.080,551
2019-11-12T02:57:22,42.805,6.029,CST-1368DR,7386,10344,15308,0.080,551
2019-11-12T03:00:24,42.805,6.029,CST-1368DR,7386,10344,15308,0.080,551
2019-11-12T03:03:25,42.805,6.029,CST-1368DR,7386,10345,15308,0.080,551
2019-11-12T03:06:27,42.805,6.029,CST-1368DR,7386,10344,15307,0.080,551
2019-11-12T03:09:29,42.805,6.029,CST-1368DR,7386,10344,15307,0.080,551
2019-11-12T03:12:30,42.805,6.029,CST-1368DR,7386,10344,15308,0.080,551
2019-11-12T03:15:32,42.805,6.029,CST-1368DR,7386,10344,15308,0.080,551
2019-11-12T03:18:34,42.805,6.029,CST-1368DR,7386,10345,15309,0.079,551
2019-11-12T03:21:35,42.805,6.029,CST-1368DR,7386,10345,15309,0.079,551
2019-11-12T03:24:37,42.805,6.029,CST-1368DR,7386,10344,15307,0.080,551
2019-11-12T03:27:39,42.805,6.029,CST-1368DR,7386,10345,15309,0.079,551
2019-11-12T03:30:40,42.805,6.029,CST-1368DR,7386,10344,15308,0.080,551
2019-11-12T03:33:42,42.805,6.029,CST-1368DR,7386,10344,15308,0.080,551
2019-11-12T03:36:44,42.805,6.029,CST-1368DR,7386,10345,15308,0.080,551
2019-11-12T03:39:45,42.805,6.029,CST-1368DR,7386,10345,15308,0.080,551
2019-11-12T03:42:47,42.805,6.029,CST-1368DR,7386,10344,15307,0.080,550
2019-11-12T03:45:49,42.805,6.029,CST-1368DR,7386,10345,15308,0.080,551
2019-11-12T03:48:51,42.805,6.029,CST-1368DR,7385,10345,15311,0.079,551
2019-11-12T03:51:52,42.805,6.029,CST-1368DR,7386,10344,15307,0.080,551
2019-11-12T03:54:54,42.805,6.029,CST-1368DR,7386,10344,15307,0.080,551
2019-11-12T03:57:56,42.805,6.029,CST-1368DR,7386,10345,15308,0.080,551
2019-11-12T04:00:57,42.805,6.029,CST-1368DR,7385,10345,15311,0.079,551
2019-11-12T04:03:59,42.805,6.029,CST-1368DR,7386,10344,15308,0.080,551
2019-11-12T04:07:01,42.805,6.029,CST-1368DR,7385,10344,15310,0.079,551
2019-11-12T04:10:02,42.805,6.029,CST-1368DR,7386,10344,15308,0.080,550
2019-11-12T04:13:04,42.805,6.029,CST-1368DR,7386,10345,15309,0.079,551
2019-11-12T04:16:06,42.805,6.029,CST-1368DR,7385,10344,15310,0.079,550
2019-11-12T04:19:07,42.805,6.029,CST-1368DR,7385,10344,15309,0.079,551
2019-11-12T04:22:09,42.805,6.029,CST-1368DR,7385,10344,15309,0.079,551
2019-11-12T04:25:11,42.805,6.029,CST-1368DR,7385,10345,15310,0.079,551
2019-11-12T04:28:12,42.805,6.029,CST-1368DR,7385,10343,15308,0.080,551
2019-11-12T04:31:14,42.805,6.029,CST-1368DR,7385,10344,15309,0.079,551
2019-11-12T04:34:16,42.805,6.029,CST-1368DR,7385,10344,15309,0.079,550
2019-11-12T04:37:17,42.805,6.029,CST-1368DR,7385,10344,15309,0.079,551
2019-11-12T04:40:19,42.805,6.029,CST-1368DR,7385,10343,15308,0.080,551
2019-11-12T04:43:20,42.805,6.029,CST-1368DR,7385,10345,15311,0.079,551
2019-11-12T04:46:22,42.805,6.029,CST-1368DR,7385,10343,15308,0.080,551
2019-11-12T04:49:24,42.805,6.029,CST-1368DR,7385,10343,15308,0.080,551
2019-11-12T04:52:25,42.805,6.029,CST-1368DR,7385,10344,15309,0.079,551
2019-11-12T04:55:27,42.805,6.029,CST-1368DR,7385,10344,15309,0.079,551
2019-11-12T04:58:29,42.805,6.029,CST-1368DR,7385,10343,15308,0.080,551
2019-11-12T05:01:30,42.805,6.029,CST-1368DR,7385,10343,15308,0.080,551
2019-11-12T05:04:32,42.805,6.029,CST-1368DR,7385,10342,15306,0.080,551
2019-11-12T05:07:34,42.805,6.029,CST-1368DR,7385,10343,15308,0.080,551
2019-11-12T05:10:35,42.805,6.029,CST-1368DR,7385,10342,15306,0.080,550
2019-11-12T05:13:37,42.805,6.029,CST-1368DR,7385,10341,15305,0.080,551
2019-11-12T05:16:39,42.805,6.029,CST-1368DR,7385,10343,15308,0.080,551
2019-11-12T05:19:41,42.805,6.029,CST-1368DR,7385,10343,15308,0.080,551
2019-11-12T05:22:42,42.805,6.029,CST-1368DR,7385,10342,15307,0.080,551
2019-11-12T05:25:45,42.805,6.029,CST-1368DR,7385,10343,15307,0.080,551
2019-11-12T05:28:46,42.805,6.029,CST-1368DR,7385,10341,15304,0.081,551
2019-11-12T05:31:48,42.805,6.029,CST-1368DR,7385,10343,15308,0.080,550
2019-11-12T05:34:49,42.805,6.029,CST-1368DR,7385,10343,15308,0.080,551
2019-11-12T05:37:51,42.805,6.029,CST-1368DR,7385,10342,15306,0.080,551
2019-11-12T05:40:53,42.805,6.029,CST-1368DR,7385,10342,15306,0.080,551
2019-11-12T05:43:55,42.805,6.029,CST-1368DR,7385,10343,15307,0.080,551
2019-11-12T05:46:57,42.805,6.029,CST-1368DR,7385,10344,15309,0.079,551
2019-11-12T05:49:58,42.805,6.029,CST-1368DR,7385,10343,15308,0.080,551
2019-11-12T05:53:00,42.805,6.029,CST-1368DR,7385,10343,15307,0.080,551
2019-11-12T05:56:02,42.805,6.029,CST-1368DR,7385,10342,15306,0.080,551
2019-11-12T05:59:03,42.805,6.029,CST-1368DR,7385,10342,15306,0.080,551
2019-11-12T06:02:05,42.805,6.029,CST-1368DR,7385,10343,15308,0.080,551
2019-11-12T06:05:07,42.805,6.029,CST-1368DR,7385,10343,15308,0.080,551
2019-11-12T06:08:08,42.805,6.029,CST-1368DR,7385,10343,15308,0.080,551
2019-11-12T06:11:10,42.805,6.029,CST-1368DR,7385,10343,15308,0.080,551
2019-11-12T06:14:12,42.805,6.029,CST-1368DR,7385,10342,15307,0.080,551
2019-11-12T06:17:13,42.805,6.029,CST-1368DR,7385,10343,15307,0.080,551
2019-11-12T06:20:15,42.805,6.029,CST-1368DR,7385,10343,15307,0.080,551
2019-11-12T06:23:17,42.805,6.029,CST-1368DR,7385,10343,15307,0.080,551
2019-11-12T06:26:18,42.805,6.029,CST-1368DR,7385,10343,15308,0.080,551
2019-11-12T06:29:20,42.805,6.029,CST-1368DR,7385,10342,15306,0.080,551
2019-11-12T06:32:22,42.805,6.029,CST-1368DR,7385,10343,15308,0.080,551
2019-11-12T06:35:23,42.805,6.029,CST-1368DR,7385,10342,15306,0.080,551
2019-11-12T06:38:25,42.805,6.029,CST-1368DR,7385,10342,15306,0.080,551
2019-11-12T06:41:27,42.805,6.029,CST-1368DR,7385,10342,15306,0.080,551
2019-11-12T06:44:28,42.805,6.029,CST-1368DR,7385,10343,15308,0.080,551
2019-11-12T06:47:30,42.805,6.029,CST-1368DR,7385,10342,15307,0.080,550
2019-11-12T06:50:31,42.805,6.029,CST-1368DR,7385,10342,15307,0.080,551
2019-11-12T06:53:33,42.805,6.029,CST-1368DR,7385,10342,15306,0.080,551
2019-11-12T06:56:35,42.805,6.029,CST-1368DR,7385,10343,15307,0.080,551
2019-11-12T06:59:36,42.805,6.029,CST-1368DR,7385,10342,15306,0.080,551
2019-11-12T07:02:38,42.805,6.029,CST-1368DR,7384,10341,15307,0.080,551
2019-11-12T07:05:40,42.805,6.029,CST-1368DR,7385,10342,15306,0.080,550
2019-11-12T07:08:41,42.805,6.029,CST-1368DR,7385,10344,15309,0.079,551
2019-11-12T07:11:43,42.805,6.029,CST-1368DR,7385,10342,15306,0.080,551
2019-11-12T07:14:45,42.805,6.029,CST-1368DR,7385,10343,15308,0.080,551
2019-11-12T07:17:46,42.805,6.029,CST-1368DR,7384,10343,15310,0.079,551
2019-11-12T07:20:48,42.805,6.029,CST-1368DR,7384,10342,15308,0.080,551
2019-11-12T07:23:50,42.805,6.029,CST-1368DR,7385,10344,15309,0.079,551
2019-11-12T07:26:51,42.805,6.029,CST-1368DR,7385,10343,15308,0.080,551
2019-11-12T07:29:53,42.805,6.029,CST-1368DR,7385,10344,15310,0.079,551
2019-11-12T07:32:55,42.805,6.029,CST-1368DR,7385,10342,15306,0.080,551
2019-11-12T07:35:57,42.805,6.029,CST-1368DR,7384,10342,15308,0.080,551
2019-11-12T07:38:58,42.805,6.029,CST-1368DR,7384,10343,15309,0.079,551
2019-11-12T07:42:00,42.805,6.029,CST-1368DR,7384,10342,15308,0.080,551
2019-11-12T07:45:02,42.805,6.029,CST-1368DR,7384,10342,15308,0.080,551
2019-11-12T07:48:03,42.805,6.029,CST-1368DR,7384,10342,15308,0.080,551
2019-11-12T07:51:05,42.805,6.029,CST-1368DR,7384,10343,15309,0.079,551
2019-11-12T07:54:07,42.805,6.029,CST-1368DR,7384,10343,15309,0.079,551
2019-11-12T07:57:08,42.805,6.029,CST-1368DR,7384,10341,15307,0.080,551
2019-11-12T08:00:10,42.805,6.029,CST-1368DR,7384,10342,15309,0.079,551
2019-11-12T08:03:12,42.805,6.029,CST-1368DR,7384,10342,15308,0.080,551
2019-11-12T08:06:13,42.805,6.029,CST-1368DR,7384,10341,15307,0.080,551
2019-11-12T08:09:15,42.805,6.029,CST-1368DR,7384,10342,15308,0.080,551
2019-11-12T08:12:16,42.805,6.029,CST-1368DR,7384,10341,15307,0.080,551
2019-11-12T08:15:18,42.805,6.029,CST-1368DR,7384,10341,15307,0.080,551
2019-11-12T08:18:20,42.805,6.029,CST-1368DR,7384,10342,15308,0.080,551
2019-11-12T08:21:21,42.805,6.029,CST-1368DR,7384,10343,15310,0.079,551
2019-11-12T08:24:23,42.805,6.029,CST-1368DR,7384,10343,15310,0.079,551
2019-11-12T08:27:25,42.805,6.029,CST-1368DR,7384,10342,15309,0.079,551
2019-11-12T08:30:26,42.805,6.029,CST-1368DR,7384,10343,15310,0.079,551
2019-11-12T08:33:28,42.805,6.029,CST-1368DR,7384,10341,15307,0.080,551
2019-11-12T08:36:30,42.805,6.029,CST-1368DR,7384,10342,15309,0.079,551
2019-11-12T08:39:31,42.805,6.029,CST-1368DR,7384,10343,15310,0.079,551
2019-11-12T08:42:33,42.805,6.029,CST-1368DR,7384,10342,15309,0.079,551
2019-11-12T08:45:35,42.805,6.029,CST-1368DR,7384,10343,15309,0.079,551
2019-11-12T08:48:36,42.805,6.029,CST-1368DR,7384,10341,15307,0.080,551
2019-11-12T08:51:38,42.805,6.029,CST-1368DR,7384,10341,15307,0.080,551
2019-11-12T08:54:40,42.805,6.029,CST-1368DR,7384,10342,15309,0.079,551
2019-11-12T08:57:41,42.805,6.029,CST-1368DR,7384,10341,15306,0.080,551
2019-11-12T09:00:43,42.805,6.029,CST-1368DR,7384,10342,15308,0.080,551
2019-11-12T09:03:45,42.805,6.029,CST-1368DR,7384,10342,15309,0.079,551
2019-11-12T09:06:46,42.805,6.029,CST-1368DR,7384,10343,15309,0.079,551
2019-11-12T09:09:48,42.805,6.029,CST-1368DR,7384,10343,15310,0.079,550
2019-11-12T09:12:49,42.805,6.029,CST-1368DR,7384,10343,15310,0.079,551
2019-11-12T09:15:51,42.805,6.029,CST-1368DR,7384,10340,15305,0.080,551
2019-11-12T09:18:53,42.805,6.029,CST-1368DR,7384,10343,15310,0.079,551
2019-11-12T09:21:54,42.805,6.029,CST-1368DR,7384,10344,15311,0.079,551
2019-11-12T09:24:56,42.805,6.029,CST-1368DR,7384,10342,15309,0.079,551
2019-11-12T09:27:58,42.805,6.029,CST-1368DR,7384,10342,15308,0.080,551
2019-11-12T09:31:00,42.805,6.029,CST-1368DR,7384,10343,15310,0.079,551
2019-11-12T09:34:01,42.805,6.029,CST-1368DR,7384,10343,15310,0.079,551
2019-11-12T09:37:03,42.805,6.029,CST-1368DR,7384,10342,15308,0.080,551
2019-11-12T09:40:05,42.805,6.029,CST-1368DR,7384,10342,15308,0.080,551
2019-11-12T09:43:07,42.805,6.029,CST-1368DR,7384,10342,15309,0.079,551
2019-11-12T09:46:08,42.805,6.029,CST-1368DR,7384,10341,15307,0.080,551
2019-11-12T09:49:10,42.805,6.029,CST-1368DR,7384,10342,15308,0.080,551
2019-11-12T09:52:12,42.805,6.029,CST-1368DR,7384,10340,15305,0.080,551
2019-11-12T09:55:13,42.805,6.029,CST-1368DR,7384,10342,15308,0.080,551
2019-11-12T09:58:15,42.805,6.029,CST-1368DR,7384,10343,15310,0.079,551
2019-11-12T10:01:17,42.805,6.029,CST-1368DR,7384,10341,15307,0.080,551
2019-11-12T10:04:18,42.805,6.029,CST-1368DR,7384,10341,15307,0.080,551
2019-11-12T10:07:20,42.805,6.029,CST-1368DR,7384,10342,15308,0.080,551
2019-11-12T10:10:22,42.805,6.029,CST-1368DR,7384,10341,15307,0.080,551
2019-11-12T10:13:24,42.805,6.029,CST-1368DR,7384,10341,15307,0.080,551
2019-11-12T10:16:25,42.805,6.029,CST-1368DR,7384,10341,15307,0.080,551
2019-11-12T10:19:27,42.805,6.029,CST-1368DR,7384,10342,15308,0.080,551
2019-11-12T10:22:29,42.805,6.029,CST-1368DR,7384,10341,15306,0.080,551
2019-11-12T10:25:30,42.805,6.029,CST-1368DR,7383,10339,15306,0.080,551
2019-11-12T10:28:32,42.805,6.029,CST-1368DR,7383,10341,15309,0.079,551
2019-11-12T10:31:33,42.805,6.029,CST-1368DR,7383,10342,15311,0.079,551
2019-11-12T10:34:35,42.805,6.029,CST-1368DR,7384,10341,15307,0.080,551
2019-11-12T10:37:37,42.805,6.029,CST-1368DR,7383,10341,15308,0.080,551
2019-11-12T10:40:38,42.805,6.029,CST-1368DR,7383,10342,15310,0.079,550
2019-11-12T10:43:40,42.805,6.029,CST-1368DR,7383,10342,15311,0.079,551
2019-11-12T10:46:42,42.805,6.029,CST-1368DR,7383,10341,15309,0.079,551
2019-11-12T10:49:43,42.805,6.029,CST-1368DR,7383,10342,15310,0.079,551
2019-11-12T10:52:45,42.805,6.029,CST-1368DR,7383,10342,15310,0.079,551
2019-11-12T10:55:47,42.805,6.029,CST-1368DR,7383,10342,15311,0.079,551
2019-11-12T10:58:48,42.805,6.029,CST-1368DR,7383,10341,15309,0.079,551
2019-11-12T11:01:50,42.805,6.029,CST-1368DR,7383,10342,15310,0.079,551
2019-11-12T11:04:52,42.805,6.029,CST-1368DR,7383,10341,15309,0.079,551
2019-11-12T11:07:53,42.805,6.029,CST-1368DR,7383,10340,15307,0.080,551
2019-11-12T11:10:55,42.805,6.029,CST-1368DR,7383,10342,15311,0.079,551
2019-11-12T11:13:57,42.805,6.029,CST-1368DR,7383,10342,15311,0.079,551
2019-11-12T11:16:58,42.805,6.029,CST-1368DR,7383,10342,15310,0.079,551
2019-11-12T11:20:00,42.805,6.029,CST-1368DR,7383,10342,15310,0.079,551
2019-11-12T11:23:02,42.805,6.029,CST-1368DR,7383,10341,15309,0.079,550
2019-11-12T11:26:03,42.805,6.029,CST-1368DR,7383,10340,15307,0.080,551
2019-11-12T11:29:05,42.805,6.029,CST-1368DR,7383,10341,15309,0.079,551
2019-11-12T11:32:06,42.805,6.029,CST-1368DR,7383,10341,15308,0.080,551
2019-11-12T11:35:08,42.805,6.029,CST-1368DR,7383,10342,15310,0.079,551
2019-11-12T11:38:10,42.805,6.029,CST-1368DR,7383,10339,15306,0.080,551
2019-11-12T11:41:11,42.805,6.029,CST-1368DR,7383,10339,15305,0.080,551
2019-11-12T11:44:13,42.805,6.029,CST-1368DR,7383,10341,15309,0.079,551
2019-11-12T11:47:15,42.805,6.029,CST-1368DR,7383,10341,15309,0.079,550
2019-11-12T11:50:16,42.805,6.029,CST-1368DR,7383,10341,15309,0.079,551
2019-11-12T11:53:18,42.805,6.029,CST-1368DR,7383,10341,15309,0.079,551
2019-11-12T11:56:20,42.805,6.029,CST-1368DR,7383,10343,15311,0.079,551
2019-11-12T11:59:21,42.805,6.029,CST-1368DR,7383,10341,15308,0.080,551
2019-11-12T12:02:23,42.805,6.029,CST-1368DR,7383,10342,15310,0.079,551
2019-11-12T12:05:25,42.805,6.029,CST-1368DR,7383,10342,15310,0.079,551
2019-11-12T12:08:26,42.805,6.029,CST-1368DR,7383,10342,15310,0.079,551
2019-11-12T12:11:28,42.805,6.029,CST-1368DR,7383,10340,15307,0.080,551
2019-11-12T12:14:30,42.805,6.029,CST-1368DR,7383,10342,15310,0.079,551
2019-11-12T12:17:31,42.805,6.029,CST-1368DR,7383,10340,15307,0.080,551
2019-11-12T12:20:33,42.805,6.029,CST-1368DR,7383,10336,15301,0.082,551
2019-11-12T12:23:34,42.805,6.029,CST-1368DR,7383,10341,15309,0.079,551
2019-11-12T12:26:36,42.805,6.029,CST-1368DR,7383,10341,15308,0.080,551
2019-11-12T12:29:38,42.805,6.029,CST-1368DR,7383,10341,15308,0.080,551
2019-11-12T12:32:39,42.805,6.029,CST-1368DR,7383,10342,15310,0.079,551
2019-11-12T12:35:41,42.805,6.029,CST-1368DR,7383,10341,15308,0.080,551
2019-11-12T12:38:43,42.805,6.029,CST-1368DR,7383,10341,15308,0.080,551
2019-11-12T12:41:44,42.805,6.029,CST-1368DR,7383,10341,15308,0.080,551
2019-11-12T12:44:46,42.805,6.029,CST-1368DR,7383,10340,15307,0.080,551
2019-11-12T12:47:48,42.805,6.029,CST-1368DR,7383,10340,15307,0.080,551
2019-11-12T12:50:49,42.805,6.029,CST-1368DR,7382,10340,15309,0.079,551
2019-11-12T12:53:51,42.805,6.029,CST-1368DR,7383,10339,15306,0.080,551
2019-11-12T12:56:53,42.805,6.029,CST-1368DR,7383,10342,15310,0.079,551
2019-11-12T12:59:54,42.805,6.029,CST-1368DR,7383,10341,15308,0.080,551
2019-11-12T13:02:56,42.805,6.029,CST-1368DR,7382,10341,15310,0.079,551
2019-11-12T13:05:58,42.805,6.029,CST-1368DR,7382,10340,15309,0.079,551
2019-11-12T13:08:59,42.805,6.029,CST-1368DR,7382,10341,15310,0.079,551
2019-11-12T13:12:01,42.805,6.029,CST-1368DR,7382,10342,15312,0.079,551
2019-11-12T13:15:03,42.805,6.029,CST-1368DR,7382,10341,15311,0.079,551
2019-11-12T13:18:04,42.805,6.029,CST-1368DR,7382,10340,15309,0.079,551
2019-11-12T13:21:06,42.805,6.029,CST-1368DR,7382,10341,15310,0.079,551
2019-11-12T13:24:08,42.805,6.029,CST-1368DR,7382,10341,15310,0.079,551
2019-11-12T13:27:09,42.805,6.029,CST-1368DR,7382,10339,15307,0.080,551
2019-11-12T13:30:11,42.805,6.029,CST-1368DR,7382,10341,15311,0.079,550
2019-11-12T13:33:13,42.805,6.029,CST-1368DR,7382,10341,15310,0.079,551
2019-11-12T13:36:14,42.805,6.029,CST-1368DR,7382,10339,15307,0.080,551
2019-11-12T13:39:16,42.805,6.029,CST-1368DR,7382,10341,15311,0.079,551
2019-11-12T13:42:18,42.805,6.029,CST-1368DR,7382,10340,15309,0.079,551
2019-11-12T13:45:19,42.805,6.029,CST-1368DR,7382,10339,15308,0.080,551
2019-11-12T13:48:21,42.805,6.029,CST-1368DR,7382,10341,15311,0.079,551
2019-11-12T13:51:22,42.805,6.029,CST-1368DR,7382,10339,15308,0.080,551
2019-11-12T13:54:24,42.805,6.029,CST-1368DR,7382,10339,15307,0.080,551
2019-11-12T13:57:26,42.805,6.029,CST-1368DR,7382,10341,15311,0.079,551
2019-11-12T14:00:27,42.805,6.029,CST-1368DR,7382,10340,15309,0.079,551
2019-11-12T14:03:29,42.805,6.029,CST-1368DR,7382,10338,15306,0.080,551
2019-11-12T14:06:31,42.805,6.029,CST-1368DR,7382,10339,15308,0.080,551
2019-11-12T14:09:32,42.805,6.029,CST-1368DR,7382,10341,15310,0.079,551
2019-11-12T14:12:34,42.805,6.029,CST-1368DR,7382,10340,15309,0.079,551
2019-11-12T14:15:36,42.805,6.029,CST-1368DR,7382,10341,15311,0.079,551
2019-11-12T14:18:37,42.805,6.029,CST-1368DR,7382,10341,15310,0.079,551
2019-11-12T14:21:39,42.805,6.029,CST-1368DR,7382,10339,15307,0.080,551
2019-11-12T14:24:41,42.805,6.029,CST-1368DR,7382,10339,15308,0.080,551
2019-11-12T14:27:42,42.805,6.029,CST-1368DR,7382,10340,15309,0.079,551
2019-11-12T14:30:44,42.805,6.029,CST-1368DR,7382,10340,15309,0.079,550
2019-11-12T14:33:46,42.805,6.029,CST-1368DR,7382,10339,15307,0.080,551
2019-11-12T14:36:47,42.805,6.029,CST-1368DR,7382,10340,15309,0.079,550
2019-11-12T14:39:49,42.805,6.029,CST-1368DR,7382,10340,15309,0.079,551
2019-11-12T14:42:51,42.805,6.029,CST-1368DR,7382,10338,15306,0.080,550
2019-11-12T14:45:52,42.805,6.029,CST-1368DR,7382,10340,15309,0.079,551
2019-11-12T14:48:54,42.805,6.029,CST-1368DR,7382,10341,15311,0.079,551
2019-11-12T14:51:56,42.805,6.029,CST-1368DR,7382,10339,15307,0.080,551
2019-11-12T14:54:57,42.805,6.029,CST-1368DR,7382,10338,15306,0.080,551
2019-11-12T14:57:59,42.805,6.029,CST-1368DR,7382,10335,15302,0.081,551
2019-11-12T15:01:00,42.805,6.029,CST-1368DR,7382,10340,15309,0.079,551
2019-11-12T15:04:02,42.805,6.029,CST-1368DR,7382,10339,15308,0.080,551
2019-11-12T15:07:04,42.805,6.029,CST-1368DR,7382,10339,15308,0.080,551
2019-11-12T15:10:05,42.805,6.029,CST-1368DR,7382,10341,15310,0.079,551
2019-11-12T15:13:07,42.805,6.029,CST-1368DR,7382,10339,15307,0.080,551
2019-11-12T15:16:09,42.805,6.029,CST-1368DR,7382,10340,15309,0.079,550
2019-11-12T15:19:10,42.805,6.029,CST-1368DR,7382,10337,15305,0.080,551
2019-11-12T15:22:12,42.805,6.029,CST-1368DR,7382,10340,15309,0.079,551
2019-11-12T15:25:14,42.805,6.029,CST-1368DR,7382,10340,15309,0.079,551
2019-11-12T15:28:15,42.805,6.029,CST-1368DR,7382,10341,15311,0.079,551
2019-11-12T15:31:17,42.805,6.029,CST-1368DR,7382,10340,15309,0.079,551
2019-11-12T15:34:19,42.805,6.029,CST-1368DR,7382,10340,15309,0.079,551
2019-11-12T15:37:21,42.805,6.029,CST-1368DR,7382,10340,15309,0.079,551
2019-11-12T15:40:22,42.805,6.029,CST-1368DR,7382,10342,15312,0.079,551
2019-11-12T15:43:24,42.805,6.029,CST-1368DR,7382,10339,15307,0.080,551
2019-11-12T15:46:26,42.805,6.029,CST-1368DR,7382,10339,15307,0.080,551
2019-11-12T15:49:27,42.805,6.029,CST-1368DR,7382,10340,15309,0.079,551
2019-11-12T15:52:29,42.805,6.029,CST-1368DR,7382,10342,15312,0.079,551
2019-11-12T15:55:31,42.805,6.029,CST-1368DR,7382,10341,15310,0.079,551
2019-11-12T15:58:32,42.805,6.029,CST-1368DR,7382,10341,15311,0.079,551
2019-11-12T16:01:34,42.805,6.029,CST-1368DR,7382,10338,15306,0.080,551
2019-11-12T16:04:36,42.805,6.029,CST-1368DR,7382,10340,15309,0.079,551
2019-11-12T16:07:37,42.805,6.029,CST-1368DR,7382,10340,15309,0.079,551
2019-11-12T16:10:39,42.805,6.029,CST-1368DR,7382,10339,15308,0.080,551
2019-11-12T16:13:41,42.805,6.029,CST-1368DR,7382,10339,15308,0.080,551
2019-11-12T16:16:43,42.805,6.029,CST-1368DR,7381,10338,15308,0.080,551
2019-11-12T16:19:44,42.805,6.029,CST-1368DR,7382,10338,15306,0.080,551
2019-11-12T16:22:46,42.805,6.029,CST-1368DR,7382,10339,15308,0.080,551
2019-11-12T16:25:47,42.805,6.029,CST-1368DR,7382,10341,15310,0.079,551
2019-11-12T16:28:49,42.805,6.029,CST-1368DR,7381,10337,15307,0.080,551
2019-11-12T16:31:51,42.805,6.029,CST-1368DR,7382,10340,15309,0.079,551
2019-11-12T16:34:52,42.805,6.029,CST-1368DR,7382,10338,15306,0.080,551
2019-11-12T16:37:54,42.805,6.029,CST-1368DR,7382,10339,15308,0.080,551